| time (UTC) | temp F | wind direction | speed MPH | gust MPH | rain 1hr in | rain 24hr in | rain mn in | humidity % | barometer mb |
| 20260906212441 | 63 | 330 | 0.0 | 2.0 | 0.00 | 0.00 | 0.00 | 85 | 1021.9 |
| 20260906211447 | 63 | 336 | 0.0 | 4.0 | 0.00 | 0.00 | 0.00 | 88 | 1021.8 |
| 20260906205251 | 61 | 233 | 2.0 | 5.0 | 0.00 | 0.00 | 0.00 | 90 | 1021.4 |
| 20260906204251 | 60 | 240 | 1.0 | 4.0 | 0.00 | 0.00 | 0.00 | 91 | 1021.3 |
| 20260906203309 | 59 | 249 | 1.0 | 3.0 | 0.00 | 0.00 | 0.00 | 91 | 1021.1 |
| 20260906200133 | 59 | 245 | 1.0 | 5.0 | 0.00 | 0.00 | 0.00 | 90 | 1020.8 |
| 20260906194029 | 59 | 238 | 2.0 | 6.0 | 0.00 | 0.00 | 0.00 | 90 | 1020.7 |
| 20260906191844 | 59 | 241 | 3.0 | 6.0 | 0.00 | 0.00 | 0.00 | 90 | 1020.8 |
| 20260906190840 | 60 | 320 | 3.0 | 8.0 | 0.00 | 0.00 | 0.00 | 90 | 1020.7 |
| 20260906185835 | 60 | 254 | 3.0 | 8.0 | 0.00 | 0.00 | 0.00 | 90 | 1020.8 |
| 20260906181609 | 60 | 245 | 3.0 | 8.0 | 0.00 | 0.00 | 0.00 | 90 | 1020.9 |
| 20260906180559 | 60 | 243 | 3.0 | 9.0 | 0.00 | 0.00 | 0.00 | 90 | 1020.9 |
| 20260906175546 | 60 | 228 | 3.0 | 9.0 | 0.00 | 0.00 | 0.00 | 90 | 1020.8 |
| 20260906174602 | 60 | 198 | 2.0 | 9.0 | 0.00 | 0.00 | 0.00 | 90 | 1020.7 |
| 20260906172451 | 60 | 233 | 3.0 | 8.0 | 0.00 | 0.00 | 0.00 | 90 | 1020.7 |
| 20260906171445 | 60 | 231 | 3.0 | 9.0 | 0.00 | 0.00 | 0.00 | 90 | 1020.8 |
| 20260906170441 | 60 | 229 | 4.0 | 9.0 | 0.00 | 0.00 | 0.00 | 90 | 1020.8 |
| 20260906165412 | 60 | 248 | 3.0 | 8.0 | 0.00 | 0.00 | 0.00 | 89 | 1020.9 |
| 20260906164344 | 60 | 246 | 3.0 | 8.0 | 0.00 | 0.00 | 0.00 | 89 | 1020.8 |
| 20260906163318 | 61 | 234 | 3.0 | 8.0 | 0.00 | 0.00 | 0.00 | 89 | 1020.9 |
| 20260906161154 | 60 | 225 | 4.0 | 9.0 | 0.00 | 0.00 | 0.00 | 89 | 1021.1 |
| 20260906153044 | 60 | 249 | 3.0 | 8.0 | 0.00 | 0.00 | 0.00 | 88 | 1021.1 |
| 20260906152046 | 61 | 221 | 3.0 | 8.0 | 0.00 | 0.00 | 0.00 | 88 | 1021.1 |
| 20260906151019 | 61 | 237 | 3.0 | 5.0 | 0.00 | 0.00 | 0.00 | 88 | 1021.1 |
| 20260906150010 | 61 | 262 | 2.0 | 5.0 | 0.00 | 0.00 | 0.00 | 88 | 1021.2 |
| 20260906144940 | 61 | 246 | 2.0 | 5.0 | 0.00 | 0.00 | 0.00 | 87 | 1021.3 |
| 20260906143948 | 61 | 253 | 2.0 | 5.0 | 0.00 | 0.00 | 0.00 | 87 | 1021.3 |
| 20260906141824 | 62 | 236 | 1.0 | 5.0 | 0.00 | 0.00 | 0.00 | 87 | 1021.3 |
| 20260906140803 | 62 | 254 | 2.0 | 4.0 | 0.00 | 0.00 | 0.00 | 86 | 1021.3 |
| 20260906135737 | 62 | 255 | 2.0 | 4.0 | 0.00 | 0.00 | 0.00 | 85 | 1021.2 |
| 20260906134752 | 63 | 241 | 1.0 | 6.0 | 0.00 | 0.00 | 0.00 | 85 | 1021.2 |
| 20260906133756 | 64 | 254 | 1.0 | 6.0 | 0.00 | 0.00 | 0.00 | 85 | 1021.2 |
| 20260906132748 | 64 | 233 | 2.0 | 8.0 | 0.00 | 0.00 | 0.00 | 85 | 1021.1 |
| 20260906131802 | 64 | 225 | 2.0 | 9.0 | 0.00 | 0.00 | 0.00 | 85 | 1021.0 |
| 20260906130826 | 64 | 230 | 1.0 | 9.0 | 0.00 | 0.00 | 0.00 | 84 | 1021.1 |
| 20260906125844 | 65 | 214 | 3.0 | 7.0 | 0.00 | 0.00 | 0.00 | 84 | 1021.0 |
| 20260906124909 | 65 | 178 | 3.0 | 8.0 | 0.00 | 0.00 | 0.00 | 84 | 1021.1 |
| 20260906122805 | 65 | 185 | 3.0 | 9.0 | 0.00 | 0.00 | 0.00 | 83 | 1021.2 |
| 20260906121805 | 65 | 200 | 4.0 | 9.0 | 0.00 | 0.00 | 0.00 | 83 | 1021.2 |
| 20260906120813 | 65 | 151 | 4.0 | 10.0 | 0.00 | 0.00 | 0.00 | 82 | 1021.2 |
| 20260906115819 | 65 | 153 | 5.0 | 10.0 | 0.00 | 0.00 | 0.00 | 82 | 1021.2 |
| 20260906114829 | 65 | 179 | 5.0 | 12.0 | 0.00 | 0.00 | 0.00 | 82 | 1021.1 |
| 20260906113754 | 65 | 186 | 6.0 | 12.0 | 0.00 | 0.00 | 0.00 | 81 | 1021.1 |
| 20260906112758 | 65 | 188 | 4.0 | 11.0 | 0.00 | 0.00 | 0.00 | 81 | 1021.0 |
| 20260906111740 | 65 | 181 | 6.0 | 12.0 | 0.00 | 0.00 | 0.00 | 80 | 1021.0 |
| 20260906110744 | 65 | 179 | 5.0 | 12.0 | 0.00 | 0.00 | 0.00 | 81 | 1020.8 |
| 20260906105808 | 65 | 148 | 4.0 | 11.0 | 0.00 | 0.00 | 0.00 | 80 | 1020.9 |
| 20260906103705 | 65 | 179 | 5.0 | 10.0 | 0.00 | 0.00 | 0.00 | 80 | 1020.6 |
| 20260906101530 | 65 | 210 | 6.0 | 12.0 | 0.00 | 0.00 | 0.00 | 80 | 1020.3 |
| 20260906095520 | 65 | 143 | 8.0 | 15.0 | 0.00 | 0.00 | 0.00 | 78 | 1020.1 |
| 20260906094524 | 65 | 134 | 7.0 | 13.0 | 0.00 | 0.00 | 0.00 | 80 | 1020.0 |
| 20260906093454 | 65 | 129 | 7.0 | 13.0 | 0.00 | 0.00 | 0.00 | 80 | 1019.9 |
| 20260906092423 | 65 | 143 | 7.0 | 13.0 | 0.00 | 0.00 | 0.00 | 79 | 1019.8 |
| 20260906090316 | 65 | 175 | 6.0 | 13.0 | 0.00 | 0.00 | 0.00 | 79 | 1019.5 |
| 20260906085309 | 66 | 144 | 6.0 | 13.0 | 0.00 | 0.00 | 0.00 | 79 | 1019.4 |
| 20260906084238 | 66 | 156 | 6.0 | 12.0 | 0.00 | 0.00 | 0.00 | 78 | 1019.1 |
| 20260906083252 | 66 | 155 | 7.0 | 13.0 | 0.00 | 0.00 | 0.00 | 77 | 1018.9 |
| 20260906082255 | 66 | 164 | 6.0 | 13.0 | 0.00 | 0.00 | 0.00 | 75 | 1018.9 |
| 20260906080217 | 66 | 153 | 6.0 | 11.0 | 0.00 | 0.00 | 0.00 | 75 | 1018.4 |
| 20260906075152 | 66 | 181 | 7.0 | 15.0 | 0.00 | 0.00 | 0.00 | 72 | 1018.2 |
| 20260906074210 | 66 | 162 | 8.0 | 15.0 | 0.00 | 0.00 | 0.00 | 73 | 1018.1 |
| 20260906073213 | 66 | 158 | 9.0 | 14.0 | 0.00 | 0.00 | 0.00 | 72 | 1018.0 |
| 20260906072151 | 66 | 150 | 7.0 | 13.0 | 0.00 | 0.00 | 0.00 | 71 | 1017.9 |
| 20260906070042 | 67 | 168 | 7.0 | 13.0 | 0.00 | 0.00 | 0.00 | 68 | 1017.4 |
| 20260906065041 | 67 | 227 | 8.0 | 14.0 | 0.00 | 0.00 | 0.00 | 67 | 1017.3 |
| 20260906062943 | 68 | 120 | 6.0 | 11.0 | 0.00 | 0.00 | 0.00 | 69 | 1017.0 |
| 20260906061955 | 68 | 157 | 6.0 | 11.0 | 0.00 | 0.00 | 0.00 | 68 | 1016.9 |
| 20260906061017 | 68 | 174 | 5.0 | 11.0 | 0.00 | 0.00 | 0.00 | 68 | 1016.9 |
| 20260906054815 | 68 | 165 | 7.0 | 13.0 | 0.00 | 0.00 | 0.00 | 67 | 1016.8 |
| 20260906053754 | 68 | 135 | 7.0 | 13.0 | 0.00 | 0.00 | 0.00 | 66 | 1016.8 |
| 20260906052803 | 68 | 179 | 7.0 | 13.0 | 0.00 | 0.00 | 0.00 | 64 | 1016.7 |
| 20260906051807 | 68 | 138 | 7.0 | 13.0 | 0.00 | 0.00 | 0.00 | 64 | 1016.7 |
| 20260906045604 | 69 | 160 | 8.0 | 17.0 | 0.00 | 0.00 | 0.00 | 64 | 1016.4 |
| 20260906044617 | 69 | 168 | 7.0 | 14.0 | 0.00 | 0.00 | 0.00 | 63 | 1016.4 |
| 20260906042429 | 69 | 180 | 7.0 | 13.0 | 0.00 | 0.00 | 0.00 | 58 | 1016.5 |
| 20260906041402 | 70 | 180 | 7.0 | 12.0 | 0.00 | 0.00 | 0.00 | 61 | 1016.4 |
| 20260906035211 | 70 | 180 | 7.0 | 13.0 | 0.00 | 0.00 | 0.00 | 59 | 1016.2 |
| 20260906034209 | 70 | 164 | 5.0 | 11.0 | 0.00 | 0.00 | 0.00 | 59 | 1016.2 |
| 20260906033143 | 70 | 139 | 8.0 | 14.0 | 0.00 | 0.00 | 0.00 | 56 | 1016.1 |
| 20260906032143 | 70 | 163 | 7.0 | 14.0 | 0.00 | 0.00 | 0.00 | 55 | 1016.1 |
| 20260906031202 | 70 | 183 | 6.0 | 12.0 | 0.00 | 0.00 | 0.00 | 56 | 1015.9 |
| 20260906030201 | 70 | 133 | 6.0 | 11.0 | 0.00 | 0.00 | 0.00 | 56 | 1016.0 |
| 20260906025157 | 70 | 167 | 6.0 | 11.0 | 0.00 | 0.00 | 0.00 | 56 | 1015.9 |
| 20260906024142 | 70 | 179 | 6.0 | 12.0 | 0.00 | 0.00 | 0.00 | 54 | 1016.0 |
| 20260906023158 | 71 | 180 | 6.0 | 13.0 | 0.00 | 0.00 | 0.00 | 52 | 1016.0 |
| 20260906022213 | 71 | 193 | 7.0 | 13.0 | 0.00 | 0.00 | 0.00 | 54 | 1016.0 |
| 20260906021146 | 71 | 179 | 6.0 | 13.0 | 0.00 | 0.00 | 0.00 | 52 | 1016.1 |
| 20260906020142 | 73 | 179 | 5.0 | 13.0 | 0.00 | 0.00 | 0.00 | 50 | 1016.1 |
| 20260906015113 | 73 | 206 | 5.0 | 13.0 | 0.00 | 0.00 | 0.00 | 46 | 1016.2 |
| 20260906014122 | 73 | 259 | 5.0 | 13.0 | 0.00 | 0.00 | 0.00 | 43 | 1016.3 |
| 20260906013129 | 74 | 214 | 4.0 | 13.0 | 0.00 | 0.00 | 0.00 | 41 | 1016.2 |
| 20260906012137 | 74 | 328 | 3.0 | 16.0 | 0.00 | 0.00 | 0.00 | 43 | 1016.1 |
| 20260906011134 | 73 | 210 | 4.0 | 16.0 | 0.00 | 0.00 | 0.00 | 42 | 1016.1 |
| 20260906010157 | 73 | 267 | 4.0 | 16.0 | 0.00 | 0.00 | 0.00 | 42 | 1016.1 |
| 20260906004052 | 73 | 266 | 4.0 | 11.0 | 0.00 | 0.00 | 0.00 | 44 | 1016.0 |
| 20260906002046 | 72 | 249 | 4.0 | 16.0 | 0.00 | 0.00 | 0.00 | 45 | 1016.0 |
| 20260906001056 | 72 | 286 | 4.0 | 14.0 | 0.00 | 0.00 | 0.00 | 44 | 1015.8 |
| 20260905234905 | 71 | 243 | 4.0 | 11.0 | 0.00 | 0.00 | 0.00 | 45 | 1015.9 |
| 20260905232847 | 69 | 340 | 3.0 | 13.0 | 0.00 | 0.00 | 0.00 | 47 | 1015.7 |
| 20260905231822 | 69 | 288 | 3.0 | 13.0 | 0.00 | 0.00 | 0.00 | 47 | 1015.7 |
| 20260905225618 | 69 | 229 | 4.0 | 14.0 | 0.00 | 0.00 | 0.00 | 47 | 1015.6 |
| 20260905224608 | 69 | 241 | 2.0 | 14.0 | 0.00 | 0.00 | 0.00 | 47 | 1015.4 |
| 20260905223608 | 68 | 222 | 3.0 | 14.0 | 0.00 | 0.00 | 0.00 | 49 | 1015.3 |
| 20260905222611 | 68 | 335 | 3.0 | 12.0 | 0.00 | 0.00 | 0.00 | 49 | 1015.1 |
| 20260905221612 | 67 | 280 | 3.0 | 14.0 | 0.00 | 0.00 | 0.00 | 49 | 1015.2 |
| 20260905220612 | 67 | 254 | 3.0 | 14.0 | 0.00 | 0.00 | 0.00 | 49 | 1015.1 |